FW8061 Weather Reports


Display with metric or nautical units.
time (UTC)temp
F
wind
direction
speed
MPH
gust
MPH
rain 1hr
in
rain 24hr
in
rain mn
in
humidity
%
barometer
mb
20260508135039 46 314 3.0 6.0 0.00 0.00 0.00 63 1009.7
20260508134022 46 322 4.0 8.0 0.00 0.00 0.00 63 1009.7
20260508133022 47 321 4.0 7.0 0.00 0.00 0.00 63 1009.7
20260508132108 47 312 3.0 7.0 0.00 0.00 0.00 64 1009.7
20260508131029 46 318 3.0 4.0 0.00 0.00 0.00 65 1009.6
20260508130042 46 324 3.0 9.0 0.00 0.00 0.00 65 1009.6
20260508125023 46 308 3.0 6.0 0.00 0.00 0.00 66 1009.6
20260508124023 46 327 3.0 7.0 0.00 0.00 0.00 67 1009.5
20260508123017 46 327 3.0 6.0 0.00 0.00 0.00 69 1009.5
20260508122109 46 260 2.0 4.0 0.00 0.00 0.00 64 1009.4
20260508121029 45 284 2.0 4.0 0.00 0.00 0.00 71 1009.5
20260508120029 45 203 1.0 3.0 0.00 0.00 0.00 74 1009.5
20260508115029 45 203 2.0 3.0 0.00 0.00 0.00 74 1009.5
20260508114029 44 219 2.0 3.0 0.00 0.00 0.00 74 1009.4
20260508113050 44 221 1.0 3.0 0.00 0.00 0.00 75 1009.3
20260508112031 43 209 2.0 5.0 0.00 0.00 0.00 76 1009.2
20260508111030 43 209 2.0 2.0 0.00 0.00 0.00 78 1009.2
20260508110032 43 234 1.0 2.0 0.00 0.00 0.00 78 1009.1
20260508105030 42 221 1.0 2.0 0.00 0.00 0.00 79 1009.0
20260508104031 42 213 1.0 2.0 0.00 0.00 0.00 80 1008.9
20260508103031 42 229 0.0 2.0 0.00 0.00 0.00 79 1008.8
20260508102051 42 289 1.0 1.0 0.00 0.00 0.00 80 1008.7
20260508101031 42 229 1.0 1.0 0.00 0.00 0.00 79 1008.7
20260508100031 42 219 1.0 1.0 0.00 0.00 0.00 80 1008.6
20260508095032 42 276 1.0 1.0 0.00 0.00 0.00 78 1008.5
20260508094031 42 200 1.0 2.0 0.00 0.00 0.00 78 1008.4
20260508093017 42 199 1.0 2.0 0.00 0.00 0.00 79 1008.4
20260508092032 42 225 1.0 1.0 0.00 0.00 0.00 78 1008.5
20260508091032 42 213 1.0 1.0 0.00 0.00 0.00 77 1008.5
20260508090017 42 227 1.0 1.0 0.00 0.00 0.00 74 1008.5
20260508085058 43 204 1.0 1.0 0.00 0.00 0.00 74 1008.5
20260508084017 43 301 1.0 2.0 0.00 0.00 0.00 74 1008.6
20260508083033 43 332 2.0 2.0 0.00 0.00 0.00 74 1008.6
20260508082018 44 343 2.0 3.0 0.00 0.00 0.00 73 1008.6
20260508081018 44 334 2.0 3.0 0.00 0.00 0.00 74 1008.7
20260508080039 44 218 1.0 2.0 0.00 0.00 0.00 73 1008.5
20260508075018 44 226 1.0 2.0 0.00 0.00 0.00 74 1008.3
20260508074020 44 199 1.0 1.0 0.00 0.00 0.00 74 1008.2
20260508073019 44 354 1.0 1.0 0.00 0.00 0.00 73 1008.2
20260508072019 44 281 1.0 1.0 0.00 0.00 0.00 73 1008.2
20260508071020 44 0.0 0.0 0.00 0.00 0.00 73 1008.2
20260508070019 45 0.0 0.0 0.00 0.00 0.00 72 1008.3
20260508065019 45 0.0 0.0 0.00 0.00 0.00 72 1008.3
20260508064019 45 0.0 0.0 0.00 0.00 0.00 71 1008.3
20260508063019 45 179 0.0 1.0 0.00 0.00 0.00 71 1008.3
20260508062019 45 0.0 0.0 0.00 0.00 0.00 70 1008.4
20260508061100 45 190 0.0 1.0 0.00 0.00 0.00 70 1008.5
20260508060020 45 247 0.0 1.0 0.00 0.00 0.00 70 1008.6
20260508055020 46 0.0 0.0 0.00 0.00 0.00 67 1008.5
20260508054020 46 264 0.0 2.0 0.00 0.00 0.00 66 1008.6
20260508053018 46 0 2.0 3.0 0.00 0.00 0.00 66 1008.6
20260508052018 46 336 2.0 4.0 0.00 0.00 0.00 63 1008.6
20260508051040 46 336 1.0 3.0 0.00 0.00 0.00 62 1008.6
20260508050019 46 344 1.0 4.0 0.00 0.00 0.00 62 1008.6
20260508045019 46 340 1.0 4.0 0.00 0.00 0.00 63 1008.7
20260508044019 46 346 2.0 3.0 0.00 0.00 0.00 63 1008.7
20260508043019 46 343 2.0 2.0 0.00 0.00 0.00 63 1008.7
20260508042019 47 335 1.0 3.0 0.00 0.00 0.00 63 1008.7
20260508041019 47 344 1.0 2.0 0.00 0.00 0.00 62 1008.6
20260508040017 46 324 2.0 4.0 0.00 0.00 0.00 65 1008.6
20260508035021 47 333 1.0 2.0 0.00 0.00 0.00 65 1008.6
20260508034019 47 346 1.0 2.0 0.00 0.00 0.00 62 1008.6
20260508033017 47 352 1.0 3.0 0.00 0.00 0.00 61 1008.6
20260508032041 47 347 2.0 3.0 0.00 0.00 0.00 60 1008.6
20260508031017 47 344 2.0 3.0 0.00 0.00 0.00 60 1008.6
20260508030018 47 342 2.0 4.0 0.00 0.00 0.00 60 1008.6
20260508025017 47 351 2.0 4.0 0.00 0.00 0.00 61 1008.6
20260508024018 47 348 2.0 3.0 0.00 0.00 0.00 61 1008.7
20260508023018 47 348 2.0 3.0 0.00 0.00 0.00 59 1008.7
20260508022019 48 342 2.0 4.0 0.00 0.00 0.00 58 1008.6
20260508021018 48 348 2.0 4.0 0.00 0.00 0.00 57 1008.6
20260508020018 48 340 2.0 4.0 0.00 0.00 0.00 59 1008.6
20260508015019 48 344 2.0 3.0 0.00 0.00 0.00 58 1008.5
20260508014019 49 342 2.0 3.0 0.00 0.00 0.00 56 1008.4
20260508013020 49 329 2.0 5.0 0.00 0.00 0.00 56 1008.4
20260508012019 48 335 2.0 5.0 0.00 0.00 0.00 56 1008.3
20260508011016 49 321 1.0 2.0 0.00 0.00 0.00 56 1008.3
20260508010039 49 317 2.0 3.0 0.00 0.00 0.00 54 1008.3
20260508005020 49 326 2.0 3.0 0.00 0.00 0.00 52 1008.2
20260508004037 50 326 3.0 5.0 0.00 0.00 0.00 51 1008.1
20260508003020 50 326 3.0 5.0 0.00 0.00 0.00 50 1008.0
20260508002020 50 324 4.0 8.0 0.00 0.00 0.00 49 1007.9
20260508001019 50 321 4.0 8.0 0.00 0.00 0.00 47 1007.9
20260508000017 51 319 4.0 8.0 0.00 0.00 0.00 47 1007.8
20260507235018 51 323 5.0 11.0 0.00 0.00 0.00 47 1007.8
20260507234018 51 299 3.0 8.0 0.00 0.00 0.00 45 1007.7
20260507233018 51 329 4.0 8.0 0.00 0.00 0.00 46 1007.7
20260507232018 52 320 5.0 9.0 0.00 0.00 0.00 45 1007.6
20260507231018 52 318 3.0 7.0 0.00 0.00 0.00 44 1007.6
20260507230019 52 328 5.0 9.0 0.00 0.00 0.00 44 1007.6
20260507225019 52 319 6.0 12.0 0.00 0.00 0.00 44 1007.6
20260507224019 51 322 4.0 9.0 0.00 0.00 0.00 47 1007.6
20260507223019 51 306 6.0 12.0 0.00 0.00 0.00 47 1007.7
20260507222019 51 326 5.0 9.0 0.00 0.00 0.00 46 1007.7
20260507221020 52 282 5.0 11.0 0.00 0.00 0.00 45 1007.6
20260507220058 52 314 5.0 10.0 0.00 0.00 0.00 46 1007.6
20260507215040 51 318 5.0 10.0 0.00 0.00 0.00 46 1007.5
20260507214020 51 297 5.0 10.0 0.00 0.00 0.00 46 1007.5
20260507213017 52 316 4.0 9.0 0.00 0.00 0.00 45 1007.4
20260507212020 52 293 6.0 11.0 0.00 0.00 0.00 44 1007.3
20260507211019 52 299 6.0 15.0 0.00 0.00 0.00 44 1007.3
20260507210018 52 298 8.0 16.0 0.00 0.00 0.00 43 1007.3
20260507205019 53 305 6.0 15.0 0.00 0.00 0.00 44 1007.2
20260507204039 53 317 7.0 16.0 0.00 0.00 0.00 42 1007.1
20260507203018 52 313 6.0 13.0 0.00 0.00 0.00 47 1007.0
20260507202018 52 323 6.0 15.0 0.00 0.00 0.00 47 1007.0
20260507201019 52 306 6.0 14.0 0.00 0.00 0.00 46 1007.1
20260507200020 52 313 5.0 14.0 0.00 0.00 0.00 45 1007.0
20260507195019 52 308 6.0 12.0 0.00 0.00 0.00 44 1007.1
20260507194020 52 304 7.0 15.0 0.00 0.00 0.00 46 1007.2
20260507193019 52 311 7.0 14.0 0.00 0.00 0.00 47 1007.1
20260507192019 52 307 5.0 10.0 0.00 0.00 0.00 47 1007.1
20260507191019 51 307 6.0 14.0 0.00 0.00 0.00 48 1007.2
20260507190039 51 303 6.0 17.0 0.00 0.00 0.00 45 1007.2
20260507185041 51 318 5.0 11.0 0.00 0.00 0.00 45 1007.2
20260507184017 52 264 4.0 9.0 0.00 0.00 0.00 44 1007.1
20260507183017 52 293 4.0 11.0 0.00 0.00 0.00 45 1007.1
20260507182041 50 299 5.0 12.0 0.00 0.00 0.00 46 1007.1
20260507181017 51 311 6.0 12.0 0.00 0.00 0.00 46 1007.1
20260507180040 51 251 5.0 11.0 0.00 0.00 0.00 45 1007.1
20260507175021 50 282 5.0 12.0 0.00 0.00 0.00 47 1006.9
20260507174018 51 292 6.0 13.0 0.00 0.00 0.00 46 1006.9
20260507173019 52 295 7.0 16.0 0.00 0.00 0.00 44 1006.9
20260507172038 51 252 5.0 14.0 0.00 0.00 0.00 44 1007.0
20260507171018 51 262 5.0 13.0 0.00 0.00 0.00 45 1007.0
20260507170020 51 313 5.0 11.0 0.00 0.00 0.00 45 1007.1
20260507165017 51 302 6.0 13.0 0.00 0.00 0.00 46 1007.1
20260507164020 52 270 5.0 14.0 0.00 0.00 0.00 45 1007.3
20260507163019 52 286 5.0 11.0 0.00 0.00 0.00 45 1007.2
20260507162019 52 285 6.0 13.0 0.00 0.00 0.00 45 1007.2
20260507161037 51 217 6.0 12.0 0.00 0.00 0.00 49 1007.3
20260507160020 51 223 5.0 11.0 0.00 0.00 0.00 52 1007.3
20260507155019 51 262 5.0 14.0 0.00 0.00 0.00 54 1007.4
20260507154017 50 277 6.0 13.0 0.00 0.00 0.00 54 1007.4
20260507153017 49 239 5.0 12.0 0.00 0.00 0.00 57 1007.4
20260507152100 49 268 6.0 12.0 0.00 0.00 0.00 57 1007.4
20260507151020 49 242 5.0 13.0 0.00 0.00 0.00 57 1007.3
20260507150018 48 286 4.0 10.0 0.00 0.00 0.00 59 1007.4
20260507145019 48 252 4.0 10.0 0.00 0.00 0.00 60 1007.4
20260507144020 48 216 5.0 9.0 0.00 0.00 0.00 61 1007.4
20260507143019 48 220 5.0 12.0 0.00 0.00 0.00 61 1007.4
20260507142018 48 211 5.0 9.0 0.00 0.00 0.00 61 1007.4
20260507141018 47 216 4.0 8.0 0.00 0.00 0.00 62 1007.4
20260507140019 47 230 4.0 11.0 0.00 0.00 0.00 62 1007.4